| time (UTC) | temp F | wind direction | speed MPH | gust MPH | rain 1hr in | rain 24hr in | rain mn in | humidity % | barometer mb |
| 20260502163002 | 39 | 298 | 4.0 | 12.0 | 0.00 | 0.34 | 0.24 | 76 | 1018.4 |
| 20260502162501 | 39 | 324 | 6.0 | 11.0 | 0.00 | 0.34 | 0.24 | 77 | 1018.4 |
| 20260502162059 | 38 | 316 | 3.0 | 11.0 | 0.00 | 0.34 | 0.24 | 78 | 1018.4 |
| 20260502161559 | 38 | 1 | 5.0 | 10.0 | 0.00 | 0.34 | 0.24 | 80 | 1018.4 |
| 20260502161058 | 38 | 3 | 4.0 | 13.0 | 0.00 | 0.34 | 0.24 | 80 | 1018.4 |
| 20260502160557 | 38 | 18 | 6.0 | 13.0 | 0.00 | 0.34 | 0.24 | 82 | 1018.4 |
| 20260502152051 | 36 | 30 | 5.0 | 11.0 | 0.00 | 0.44 | 0.24 | 86 | 1018.1 |
| 20260502151600 | 36 | 356 | 4.0 | 8.0 | 0.00 | 0.44 | 0.24 | 86 | 1018.2 |
| 20260502151050 | 36 | 15 | 4.0 | 8.0 | 0.00 | 0.44 | 0.24 | 86 | 1018.2 |
| 20260502150550 | 36 | 11 | 3.0 | 7.0 | 0.00 | 0.44 | 0.24 | 87 | 1018.1 |
| 20260502150103 | 36 | 345 | 3.0 | 7.0 | 0.00 | 0.44 | 0.24 | 87 | 1018.1 |
| 20260502130549 | 34 | 346 | 4.0 | 8.0 | 0.02 | 0.48 | 0.24 | 88 | 1017.3 |
| 20260502123545 | 36 | 36 | 2.0 | 5.0 | 0.00 | 0.48 | 0.22 | 88 | 1017.3 |
| 20260502123058 | 36 | 46 | 2.0 | 5.0 | 0.00 | 0.48 | 0.22 | 88 | 1017.4 |
| 20260502122543 | 35 | 41 | 2.0 | 4.0 | 0.00 | 0.48 | 0.22 | 88 | 1017.3 |
| 20260502122042 | 35 | 46 | 2.0 | 5.0 | 0.00 | 0.48 | 0.22 | 88 | 1017.1 |
| 20260502121542 | 35 | 71 | 2.0 | 5.0 | 0.00 | 0.48 | 0.22 | 88 | 1017.1 |
| 20260502121041 | 35 | 48 | 1.0 | 4.0 | 0.00 | 0.48 | 0.22 | 88 | 1017.0 |
| 20260502120540 | 35 | 90 | 2.0 | 6.0 | 0.00 | 0.48 | 0.22 | 88 | 1016.9 |
| 20260502115540 | 35 | 27 | 2.0 | 6.0 | 0.01 | 0.48 | 0.22 | 88 | 1016.9 |
| 20260502115039 | 35 | 76 | 2.0 | 7.0 | 0.01 | 0.48 | 0.22 | 88 | 1016.8 |
| 20260502114544 | 35 | 96 | 2.0 | 7.0 | 0.01 | 0.48 | 0.22 | 88 | 1016.8 |
| 20260502114041 | 35 | 84 | 2.0 | 4.0 | 0.01 | 0.48 | 0.22 | 88 | 1016.8 |
| 20260502113537 | 35 | 103 | 1.0 | 4.0 | 0.01 | 0.48 | 0.22 | 88 | 1016.7 |
| 20260502113043 | 35 | 112 | 1.0 | 5.0 | 0.02 | 0.48 | 0.22 | 88 | 1016.7 |
| 20260502112537 | 35 | 58 | 1.0 | 5.0 | 0.02 | 0.48 | 0.22 | 88 | 1016.7 |
| 20260502112035 | 35 | 108 | 2.0 | 5.0 | 0.04 | 0.48 | 0.22 | 87 | 1016.7 |
| 20260502111542 | 35 | 84 | 2.0 | 5.0 | 0.04 | 0.48 | 0.22 | 87 | 1016.8 |
| 20260502111034 | 34 | 108 | 2.0 | 5.0 | 0.05 | 0.48 | 0.22 | 87 | 1016.8 |
| 20260502110533 | 34 | 67 | 2.0 | 5.0 | 0.05 | 0.48 | 0.22 | 87 | 1016.7 |
| 20260502110037 | 34 | 84 | 2.0 | 5.0 | 0.05 | 0.47 | 0.21 | 87 | 1016.7 |
| 20260502105533 | 34 | 95 | 2.0 | 3.0 | 0.05 | 0.47 | 0.21 | 87 | 1016.7 |
| 20260502105032 | 34 | 115 | 2.0 | 5.0 | 0.05 | 0.47 | 0.21 | 87 | 1016.6 |
| 20260502104537 | 34 | 108 | 3.0 | 5.0 | 0.05 | 0.47 | 0.21 | 87 | 1016.5 |
| 20260502104032 | 34 | 67 | 1.0 | 6.0 | 0.06 | 0.47 | 0.21 | 87 | 1016.5 |
| 20260502103530 | 34 | 100 | 3.0 | 6.0 | 0.07 | 0.47 | 0.21 | 87 | 1016.4 |
| 20260502103029 | 35 | 62 | 2.0 | 4.0 | 0.06 | 0.46 | 0.20 | 87 | 1016.4 |
| 20260502102529 | 35 | 93 | 2.0 | 4.0 | 0.07 | 0.46 | 0.20 | 87 | 1016.3 |
| 20260502102028 | 35 | 84 | 0.0 | 4.0 | 0.05 | 0.44 | 0.18 | 87 | 1016.3 |
| 20260502101528 | 35 | 74 | 2.0 | 4.0 | 0.06 | 0.44 | 0.18 | 87 | 1016.3 |
| 20260502101026 | 35 | 84 | 1.0 | 3.0 | 0.05 | 0.43 | 0.17 | 87 | 1016.3 |
| 20260502100530 | 35 | 122 | 0.0 | 5.0 | 0.05 | 0.43 | 0.17 | 87 | 1016.3 |
| 20260502091521 | 36 | 116 | 1.0 | 3.0 | 0.01 | 0.38 | 0.12 | 87 | 1015.8 |
| 20260502091020 | 36 | 41 | 1.0 | 4.0 | 0.01 | 0.38 | 0.12 | 87 | 1016.0 |
| 20260502090522 | 36 | 23 | 1.0 | 4.0 | 0.01 | 0.38 | 0.12 | 87 | 1016.0 |
| 20260502071511 | 37 | 16 | 3.0 | 6.0 | 0.02 | 0.37 | 0.11 | 86 | 1015.9 |
| 20260502071010 | 37 | 28 | 3.0 | 5.0 | 0.02 | 0.37 | 0.11 | 85 | 1015.9 |
| 20260502070509 | 37 | 346 | 1.0 | 4.0 | 0.02 | 0.37 | 0.11 | 86 | 1016.0 |
| 20260502070009 | 37 | 71 | 1.0 | 4.0 | 0.02 | 0.37 | 0.11 | 85 | 1016.1 |
| 20260502065507 | 37 | 356 | 2.0 | 3.0 | 0.02 | 0.37 | 0.11 | 85 | 1016.0 |
| 20260502065009 | 37 | 356 | 2.0 | 6.0 | 0.02 | 0.37 | 0.11 | 85 | 1016.0 |
| 20260502064507 | 37 | 319 | 1.0 | 10.0 | 0.02 | 0.37 | 0.11 | 85 | 1016.1 |
| 20260502064007 | 37 | 13 | 4.0 | 10.0 | 0.02 | 0.37 | 0.11 | 85 | 1016.0 |
| 20260502063507 | 37 | 335 | 1.0 | 3.0 | 0.02 | 0.37 | 0.11 | 85 | 1016.0 |
| 20260502063007 | 37 | 130 | 1.0 | 3.0 | 0.02 | 0.37 | 0.11 | 85 | 1016.1 |
| 20260502062507 | 37 | 84 | 0.0 | 2.0 | 0.01 | 0.36 | 0.10 | 85 | 1016.1 |
| 20260502062010 | 37 | 342 | 1.0 | 3.0 | 0.00 | 0.35 | 0.09 | 85 | 1016.0 |
| 20260502061507 | 37 | 112 | 1.0 | 5.0 | 0.01 | 0.35 | 0.09 | 85 | 1016.0 |
| 20260502061005 | 37 | 58 | 1.0 | 5.0 | 0.01 | 0.35 | 0.09 | 85 | 1016.1 |
| 20260502060504 | 37 | 100 | 2.0 | 4.0 | 0.01 | 0.35 | 0.09 | 85 | 1016.1 |
| 20260502060003 | 37 | 105 | 1.0 | 4.0 | 0.02 | 0.35 | 0.09 | 84 | 1016.2 |
| 20260502055502 | 37 | 23 | 0.0 | 2.0 | 0.02 | 0.35 | 0.09 | 84 | 1016.4 |
| 20260502055002 | 37 | 84 | 0.0 | 2.0 | 0.03 | 0.35 | 0.09 | 84 | 1016.4 |
| 20260502054500 | 37 | 23 | 1.0 | 4.0 | 0.04 | 0.35 | 0.09 | 84 | 1016.5 |
| 20260502054100 | 37 | 173 | 1.0 | 4.0 | 0.04 | 0.35 | 0.09 | 84 | 1016.5 |
| 20260502053600 | 37 | 84 | 1.0 | 3.0 | 0.05 | 0.35 | 0.09 | 84 | 1016.5 |
| 20260502053113 | 38 | 103 | 1.0 | 3.0 | 0.05 | 0.35 | 0.09 | 84 | 1016.5 |
| 20260502052600 | 38 | 41 | 1.0 | 5.0 | 0.06 | 0.35 | 0.09 | 84 | 1016.6 |
| 20260502052058 | 38 | 41 | 1.0 | 5.0 | 0.06 | 0.35 | 0.09 | 83 | 1016.6 |
| 20260502051557 | 38 | 84 | 2.0 | 5.0 | 0.06 | 0.34 | 0.08 | 83 | 1016.5 |
| 20260502051055 | 38 | 51 | 0.0 | 2.0 | 0.06 | 0.34 | 0.08 | 83 | 1016.7 |
| 20260502050555 | 38 | 339 | 1.0 | 2.0 | 0.07 | 0.34 | 0.08 | 83 | 1016.7 |
| 20260502050055 | 38 | 112 | 0.0 | 2.0 | 0.07 | 0.33 | 0.07 | 83 | 1016.8 |
| 20260502045554 | 38 | 331 | 1.0 | 2.0 | 0.08 | 0.33 | 0.07 | 83 | 1016.8 |
| 20260502045054 | 38 | 326 | 0.0 | 2.0 | 0.07 | 0.32 | 0.06 | 83 | 1016.9 |
| 20260502044552 | 38 | 84 | 0.0 | 2.0 | 0.06 | 0.31 | 0.05 | 83 | 1016.9 |
| 20260502044052 | 39 | 335 | 1.0 | 4.0 | 0.06 | 0.31 | 0.05 | 83 | 1017.0 |
| 20260502043552 | 39 | 309 | 1.0 | 4.0 | 0.05 | 0.30 | 0.04 | 83 | 1017.0 |
| 20260502043101 | 39 | 335 | 1.0 | 3.0 | 0.04 | 0.28 | 0.03 | 83 | 1016.9 |
| 20260502042551 | 39 | 309 | 1.0 | 2.0 | 0.04 | 0.28 | 0.03 | 83 | 1016.9 |
| 20260502042050 | 39 | 356 | 0.0 | 2.0 | 0.04 | 0.28 | 0.03 | 83 | 1016.9 |
| 20260502041551 | 39 | 218 | 0.0 | 2.0 | 0.03 | 0.28 | 0.02 | 82 | 1016.9 |
| 20260502041050 | 39 | 291 | 0.0 | 3.0 | 0.03 | 0.28 | 0.02 | 83 | 1017.0 |
| 20260502040549 | 39 | 337 | 1.0 | 7.0 | 0.02 | 0.26 | 0.00 | 82 | 1016.9 |
| 20260502040051 | 39 | 316 | 2.0 | 7.0 | 0.02 | 0.26 | 0.00 | 82 | 1016.9 |
| 20260502035547 | 39 | 333 | 3.0 | 7.0 | 0.01 | 0.25 | 0.25 | 82 | 1016.8 |
| 20260502035050 | 39 | 326 | 2.0 | 6.0 | 0.01 | 0.25 | 0.25 | 82 | 1016.8 |
| 20260502034545 | 39 | 356 | 2.0 | 9.0 | 0.01 | 0.25 | 0.25 | 82 | 1016.7 |
| 20260502034045 | 39 | 349 | 4.0 | 9.0 | 0.01 | 0.25 | 0.25 | 82 | 1016.6 |
| 20260502033544 | 39 | 342 | 4.0 | 9.0 | 0.01 | 0.25 | 0.25 | 82 | 1016.6 |
| 20260502033145 | 40 | 316 | 4.0 | 9.0 | 0.01 | 0.25 | 0.25 | 82 | 1016.6 |
| 20260502032543 | 40 | 297 | 3.0 | 7.0 | 0.01 | 0.25 | 0.25 | 82 | 1016.5 |
| 20260502032043 | 40 | 336 | 3.0 | 7.0 | 0.01 | 0.25 | 0.25 | 82 | 1016.4 |
| 20260502031546 | 40 | 318 | 3.0 | 7.0 | 0.01 | 0.25 | 0.25 | 82 | 1016.4 |
| 20260502031043 | 40 | 315 | 2.0 | 5.0 | 0.01 | 0.25 | 0.25 | 82 | 1016.4 |
| 20260502030542 | 40 | 313 | 2.0 | 5.0 | 0.00 | 0.24 | 0.24 | 82 | 1016.5 |
| 20260502030054 | 40 | 281 | 3.0 | 6.0 | 0.00 | 0.24 | 0.24 | 82 | 1016.3 |
| 20260502025542 | 40 | 314 | 4.0 | 6.0 | 0.00 | 0.24 | 0.24 | 82 | 1016.4 |
| 20260502025040 | 40 | 319 | 1.0 | 4.0 | 0.00 | 0.24 | 0.24 | 81 | 1016.3 |
| 20260502024544 | 40 | 218 | 2.0 | 4.0 | 0.00 | 0.24 | 0.24 | 81 | 1016.3 |
| 20260502024045 | 40 | 226 | 2.0 | 4.0 | 0.00 | 0.24 | 0.24 | 81 | 1016.3 |
| 20260502023540 | 40 | 227 | 1.0 | 3.0 | 0.00 | 0.24 | 0.24 | 81 | 1016.2 |
| 20260502023100 | 40 | 298 | 1.0 | 4.0 | 0.00 | 0.24 | 0.24 | 81 | 1016.2 |
| 20260502022540 | 40 | 192 | 2.0 | 4.0 | 0.00 | 0.24 | 0.24 | 81 | 1016.2 |
| 20260502022039 | 40 | 236 | 2.0 | 4.0 | 0.00 | 0.24 | 0.24 | 80 | 1016.2 |
| 20260502021543 | 40 | 222 | 2.0 | 4.0 | 0.00 | 0.24 | 0.24 | 80 | 1016.2 |
| 20260502021038 | 40 | 236 | 1.0 | 3.0 | 0.00 | 0.24 | 0.24 | 80 | 1016.2 |
| 20260502020538 | 39 | 274 | 2.0 | 3.0 | 0.00 | 0.24 | 0.24 | 79 | 1016.2 |
| 20260502020038 | 39 | 240 | 1.0 | 3.0 | 0.00 | 0.24 | 0.24 | 79 | 1016.1 |
| 20260502015537 | 39 | 264 | 0.0 | 2.0 | 0.00 | 0.24 | 0.24 | 79 | 1016.0 |
| 20260502015038 | 39 | 173 | 0.0 | 2.0 | 0.00 | 0.24 | 0.24 | 78 | 1016.0 |
| 20260502014540 | 39 | 264 | 0.0 | 3.0 | 0.00 | 0.24 | 0.24 | 78 | 1016.0 |
| 20260502014036 | 39 | 274 | 1.0 | 3.0 | 0.00 | 0.24 | 0.24 | 78 | 1016.0 |
| 20260502013535 | 39 | 226 | 1.0 | 2.0 | 0.00 | 0.24 | 0.24 | 77 | 1015.9 |
| 20260502013039 | 40 | 248 | 0.0 | 3.0 | 0.00 | 0.24 | 0.24 | 77 | 1015.8 |
| 20260502012541 | 40 | 236 | 1.0 | 3.0 | 0.00 | 0.24 | 0.24 | 77 | 1015.8 |
| 20260502012035 | 40 | 229 | 1.0 | 3.0 | 0.00 | 0.24 | 0.24 | 77 | 1015.8 |
| 20260502011538 | 40 | 229 | 1.0 | 3.0 | 0.00 | 0.24 | 0.24 | 76 | 1015.8 |
| 20260502011033 | 40 | 245 | 1.0 | 2.0 | 0.00 | 0.24 | 0.24 | 76 | 1015.7 |
| 20260502010536 | 40 | 41 | 0.0 | 2.0 | 0.00 | 0.24 | 0.24 | 76 | 1015.6 |
| 20260502010032 | 40 | 309 | 0.0 | 2.0 | 0.00 | 0.24 | 0.24 | 76 | 1015.6 |
| 20260502005531 | 40 | 309 | 0.0 | 2.0 | 0.00 | 0.24 | 0.24 | 76 | 1015.5 |
| 20260502005032 | 41 | 309 | 0.0 | 2.0 | 0.00 | 0.24 | 0.24 | 75 | 1015.5 |
| 20260502004530 | 41 | 319 | 1.0 | 2.0 | 0.00 | 0.24 | 0.24 | 75 | 1015.4 |
| 20260502004031 | 41 | 264 | 0.0 | 2.0 | 0.00 | 0.24 | 0.24 | 75 | 1015.3 |
| 20260502003528 | 41 | 41 | 0.0 | 2.0 | 0.00 | 0.24 | 0.24 | 75 | 1015.2 |
| 20260502003029 | 41 | 173 | 0.0 | 2.0 | 0.00 | 0.24 | 0.24 | 75 | 1015.1 |
| 20260502002526 | 41 | 264 | 0.0 | 2.0 | 0.00 | 0.24 | 0.24 | 74 | 1015.0 |
| 20260502002026 | 41 | 326 | 0.0 | 2.0 | 0.00 | 0.24 | 0.24 | 74 | 1014.9 |
| 20260502001525 | 42 | 309 | 0.0 | 2.0 | 0.00 | 0.24 | 0.24 | 74 | 1014.8 |
| 20260502001025 | 42 | 326 | 0.0 | 2.0 | 0.00 | 0.24 | 0.24 | 74 | 1014.8 |
| 20260502000525 | 42 | 130 | 0.0 | 2.0 | 0.00 | 0.24 | 0.24 | 74 | 1014.8 |
| 20260502000024 | 42 | 41 | 0.0 | 4.0 | 0.00 | 0.24 | 0.24 | 74 | 1014.7 |
| 20260501235523 | 42 | 319 | 2.0 | 4.0 | 0.00 | 0.24 | 0.24 | 75 | 1014.7 |
| 20260501235023 | 42 | 301 | 1.0 | 4.0 | 0.00 | 0.24 | 0.24 | 75 | 1014.7 |
| 20260501234523 | 42 | 290 | 0.0 | 4.0 | 0.00 | 0.24 | 0.24 | 75 | 1014.7 |
| 20260501234025 | 42 | 322 | 1.0 | 4.0 | 0.00 | 0.24 | 0.24 | 76 | 1014.7 |
| 20260501233523 | 42 | 213 | 2.0 | 4.0 | 0.00 | 0.24 | 0.24 | 75 | 1014.7 |
| 20260501233023 | 42 | 112 | 1.0 | 5.0 | 0.00 | 0.24 | 0.24 | 75 | 1014.7 |
| 20260501232527 | 42 | 291 | 1.0 | 5.0 | 0.00 | 0.24 | 0.24 | 75 | 1014.6 |
| 20260501232022 | 42 | 322 | 0.0 | 3.0 | 0.00 | 0.24 | 0.24 | 75 | 1014.6 |
| 20260501231523 | 42 | 298 | 0.0 | 3.0 | 0.00 | 0.24 | 0.24 | 75 | 1014.6 |
| 20260501231021 | 42 | 173 | 0.0 | 4.0 | 0.00 | 0.24 | 0.24 | 75 | 1014.6 |
| 20260501230521 | 42 | 41 | 1.0 | 4.0 | 0.00 | 0.24 | 0.24 | 75 | 1014.6 |
| 20260501230021 | 42 | 319 | 2.0 | 5.0 | 0.00 | 0.24 | 0.24 | 75 | 1014.5 |
| 20260501225525 | 42 | 356 | 1.0 | 7.0 | 0.00 | 0.24 | 0.24 | 75 | 1014.5 |
| 20260501225020 | 42 | 323 | 2.0 | 7.0 | 0.00 | 0.24 | 0.24 | 75 | 1014.3 |
| 20260501224522 | 42 | 309 | 3.0 | 7.0 | 0.00 | 0.24 | 0.24 | 75 | 1014.3 |
| 20260501224022 | 42 | 326 | 4.0 | 9.0 | 0.00 | 0.24 | 0.24 | 75 | 1014.2 |
| 20260501223522 | 42 | 334 | 4.0 | 9.0 | 0.00 | 0.24 | 0.24 | 75 | 1014.2 |
| 20260501223030 | 42 | 359 | 4.0 | 8.0 | 0.00 | 0.24 | 0.24 | 75 | 1014.2 |
| 20260501222525 | 42 | 344 | 3.0 | 8.0 | 0.00 | 0.24 | 0.24 | 76 | 1014.2 |
| 20260501222021 | 42 | 322 | 5.0 | 11.0 | 0.00 | 0.24 | 0.24 | 76 | 1014.1 |
| 20260501221523 | 42 | 323 | 5.0 | 11.0 | 0.00 | 0.24 | 0.24 | 76 | 1014.1 |
| 20260501221023 | 42 | 346 | 4.0 | 11.0 | 0.00 | 0.24 | 0.24 | 77 | 1014.2 |
| 20260501220526 | 41 | 347 | 6.0 | 11.0 | 0.00 | 0.24 | 0.24 | 78 | 1014.2 |
| 20260501220022 | 41 | 343 | 5.0 | 13.0 | 0.00 | 0.24 | 0.24 | 78 | 1014.2 |
| 20260501215519 | 41 | 1 | 8.0 | 13.0 | 0.00 | 0.24 | 0.24 | 80 | 1014.2 |
| 20260501215021 | 41 | 356 | 5.0 | 12.0 | 0.00 | 0.24 | 0.24 | 80 | 1014.2 |
| 20260501214518 | 41 | 322 | 6.0 | 12.0 | 0.00 | 0.24 | 0.24 | 81 | 1014.2 |
| 20260501214018 | 41 | 359 | 7.0 | 11.0 | 0.00 | 0.24 | 0.24 | 82 | 1014.2 |
| 20260501213518 | 41 | 341 | 3.0 | 7.0 | 0.00 | 0.24 | 0.24 | 83 | 1014.1 |
| 20260501213018 | 41 | 321 | 3.0 | 9.0 | 0.00 | 0.24 | 0.24 | 83 | 1014.0 |
| 20260501212518 | 41 | 8 | 4.0 | 11.0 | 0.00 | 0.24 | 0.24 | 84 | 1014.0 |
| 20260501212018 | 41 | 3 | 5.0 | 13.0 | 0.00 | 0.24 | 0.24 | 84 | 1014.0 |
| 20260501211518 | 41 | 342 | 5.0 | 13.0 | 0.00 | 0.24 | 0.24 | 85 | 1014.0 |
| 20260501211018 | 41 | 345 | 5.0 | 9.0 | 0.00 | 0.24 | 0.24 | 85 | 1013.9 |
| 20260501210517 | 40 | 356 | 3.0 | 8.0 | 0.00 | 0.24 | 0.24 | 86 | 1013.8 |
| 20260501210020 | 40 | 335 | 3.0 | 12.0 | 0.00 | 0.24 | 0.24 | 86 | 1013.7 |
| 20260501205520 | 40 | 6 | 7.0 | 12.0 | 0.00 | 0.24 | 0.24 | 86 | 1013.7 |
| 20260501205017 | 40 | 356 | 5.0 | 12.0 | 0.00 | 0.24 | 0.24 | 87 | 1013.6 |
| 20260501204518 | 40 | 356 | 4.0 | 13.0 | 0.00 | 0.24 | 0.24 | 87 | 1013.5 |
| 20260501204015 | 40 | 356 | 7.0 | 13.0 | 0.00 | 0.24 | 0.24 | 87 | 1013.4 |
| 20260501203515 | 39 | 27 | 4.0 | 10.0 | 0.00 | 0.24 | 0.24 | 87 | 1013.5 |
| 20260501203034 | 39 | 20 | 6.0 | 10.0 | 0.00 | 0.24 | 0.24 | 87 | 1013.6 |
| 20260501202514 | 39 | 356 | 4.0 | 13.0 | 0.00 | 0.24 | 0.24 | 88 | 1013.6 |
| 20260501202014 | 38 | 25 | 5.0 | 16.0 | 0.00 | 0.24 | 0.24 | 87 | 1013.6 |
| 20260501201514 | 38 | 343 | 8.0 | 16.0 | 0.00 | 0.24 | 0.24 | 87 | 1013.6 |
| 20260501201013 | 38 | 20 | 7.0 | 16.0 | 0.00 | 0.24 | 0.24 | 87 | 1013.6 |
| 20260501200512 | 38 | 22 | 8.0 | 16.0 | 0.00 | 0.24 | 0.24 | 87 | 1013.6 |
| 20260501200013 | 39 | 3 | 6.0 | 15.0 | 0.00 | 0.24 | 0.24 | 88 | 1013.6 |
| 20260501195511 | 38 | 356 | 6.0 | 15.0 | 0.01 | 0.24 | 0.24 | 88 | 1013.5 |
| 20260501195011 | 38 | 9 | 7.0 | 14.0 | 0.01 | 0.24 | 0.24 | 88 | 1013.3 |
| 20260501194516 | 38 | 13 | 8.0 | 15.0 | 0.02 | 0.24 | 0.24 | 88 | 1013.3 |
| 20260501194010 | 38 | 340 | 8.0 | 17.0 | 0.02 | 0.24 | 0.24 | 88 | 1013.3 |
| 20260501193509 | 38 | 15 | 9.0 | 17.0 | 0.02 | 0.24 | 0.24 | 88 | 1013.3 |
| 20260501193009 | 39 | 28 | 7.0 | 17.0 | 0.02 | 0.24 | 0.24 | 88 | 1013.3 |
| 20260501192512 | 39 | 344 | 7.0 | 20.0 | 0.02 | 0.24 | 0.24 | 88 | 1013.3 |
| 20260501192008 | 39 | 6 | 7.0 | 20.0 | 0.03 | 0.24 | 0.24 | 88 | 1013.2 |
| 20260501191507 | 39 | 330 | 10.0 | 18.0 | 0.03 | 0.24 | 0.24 | 88 | 1013.2 |
| 20260501191006 | 39 | 341 | 8.0 | 17.0 | 0.03 | 0.24 | 0.24 | 88 | 1013.0 |
| 20260501190505 | 39 | 1 | 10.0 | 17.0 | 0.03 | 0.24 | 0.24 | 87 | 1013.0 |
| 20260501190004 | 39 | 28 | 7.0 | 18.0 | 0.03 | 0.24 | 0.24 | 87 | 1013.0 |
| 20260501185502 | 40 | 22 | 10.0 | 18.0 | 0.02 | 0.23 | 0.23 | 87 | 1013.0 |
| 20260501185001 | 40 | 359 | 9.0 | 16.0 | 0.03 | 0.23 | 0.23 | 87 | 1013.0 |
| 20260501184611 | 40 | 46 | 3.0 | 11.0 | 0.02 | 0.22 | 0.22 | 88 | 1012.9 |
| 20260501184103 | 40 | 8 | 3.0 | 15.0 | 0.02 | 0.22 | 0.22 | 88 | 1012.9 |
| 20260501183600 | 40 | 359 | 6.0 | 15.0 | 0.02 | 0.22 | 0.22 | 88 | 1012.9 |
| 20260501183101 | 40 | 326 | 6.0 | 15.0 | 0.02 | 0.22 | 0.22 | 87 | 1012.8 |
| 20260501182558 | 40 | 345 | 8.0 | 15.0 | 0.02 | 0.22 | 0.22 | 88 | 1012.7 |
| 20260501182058 | 40 | 351 | 5.0 | 13.0 | 0.02 | 0.21 | 0.21 | 88 | 1012.7 |
| 20260501181558 | 40 | 1 | 8.0 | 13.0 | 0.02 | 0.21 | 0.21 | 88 | 1012.7 |
| 20260501181058 | 40 | 8 | 3.0 | 12.0 | 0.02 | 0.21 | 0.21 | 88 | 1012.5 |
| 20260501180558 | 40 | 339 | 6.0 | 12.0 | 0.02 | 0.21 | 0.21 | 88 | 1012.5 |
| 20260501180057 | 40 | 13 | 2.0 | 9.0 | 0.02 | 0.21 | 0.21 | 88 | 1012.5 |
| 20260501175558 | 40 | 27 | 3.0 | 12.0 | 0.02 | 0.21 | 0.21 | 88 | 1012.5 |
| 20260501175059 | 40 | 6 | 5.0 | 13.0 | 0.01 | 0.20 | 0.20 | 88 | 1012.4 |
| 20260501174556 | 40 | 351 | 7.0 | 13.0 | 0.02 | 0.20 | 0.20 | 88 | 1012.4 |
| 20260501174054 | 40 | 334 | 6.0 | 13.0 | 0.02 | 0.20 | 0.20 | 88 | 1012.3 |
| 20260501173554 | 40 | 341 | 5.0 | 13.0 | 0.02 | 0.20 | 0.20 | 87 | 1012.4 |
| 20260501173111 | 40 | 32 | 5.0 | 13.0 | 0.02 | 0.20 | 0.20 | 87 | 1012.5 |
| 20260501172552 | 40 | 359 | 6.0 | 12.0 | 0.02 | 0.20 | 0.20 | 88 | 1012.5 |
| 20260501172052 | 40 | 36 | 6.0 | 13.0 | 0.01 | 0.19 | 0.19 | 88 | 1012.4 |
| 20260501171551 | 40 | 4 | 6.0 | 13.0 | 0.01 | 0.19 | 0.19 | 88 | 1012.4 |
| 20260501171053 | 40 | 25 | 6.0 | 13.0 | 0.01 | 0.19 | 0.19 | 88 | 1012.4 |
| 20260501170549 | 40 | 23 | 6.0 | 14.0 | 0.02 | 0.19 | 0.19 | 88 | 1012.3 |
| 20260501170049 | 40 | 25 | 5.0 | 14.0 | 0.03 | 0.19 | 0.19 | 88 | 1012.3 |
| 20260501165549 | 40 | 350 | 3.0 | 12.0 | 0.04 | 0.19 | 0.19 | 88 | 1012.2 |
| 20260501165049 | 40 | 356 | 4.0 | 8.0 | 0.03 | 0.18 | 0.18 | 88 | 1012.3 |
| 20260501164557 | 40 | 311 | 3.0 | 10.0 | 0.04 | 0.18 | 0.18 | 87 | 1012.3 |
| 20260501164045 | 40 | 3 | 6.0 | 10.0 | 0.05 | 0.18 | 0.18 | 87 | 1012.4 |
| 20260501163546 | 40 | 1 | 6.0 | 9.0 | 0.06 | 0.18 | 0.18 | 87 | 1012.4 |